THOR ABLESTAR DEB, 1504

Orbit data source: Space-Track

THOR ABLESTAR DEB, 1504 is space debris in LEO originally from a launch on Fri, 13 Aug 1965 UTC launched from the Air Force Western Test Range (AFWTR). Debris objects in space refer to the collection of defunct objects orbiting the Earth. Examples of debris include non-operational satellites, rocket bodies, and fragments generated from explosions, collisions, or faulty payload assembly.

Loading next visibility...
Identifier
1504, 1965-065A
Orbit
LEO
Country
Flag of USUS
Related business
Manufacturer
NRL
Mission
Spacecraft
Bus & Motor
Unknown
Mass
Unknown
Launch date (UTC)
1965-08-13 (60 years ago)
Launch vehicle
Unknown
Launch site
Air Force Western Test Range (AFWTR)
Object type
Payload
Rocket body
Debris
Shape & HBR
Unknown shape, 0.1 m
Radar Cross Section
Small (<0.1 m²)

Expand to show TLE details & history
Last TLE update: 7 hours ago

TLE from 7 hours ago
0 THOR ABLESTAR DEB
1 01504U 65065A   25308.23948078  .00000269  00000-0  46778-3 0  9993
2 01504  89.9524 242.5908 0066995 135.4069 344.9764 13.40307135937577
Epoch: 2025-11-04T05:44Z
TLE epoch observation values (Epoch: 2025-11-04T05:44:51.139Z)
Latitude
59.90755°
Longitude
-67.43335°
Altitude
1,069.971 km
Speed
7.346 km/s
True Right ascension
04h 10m 02s
True Declination
59° 45' 52"
Sunlit
Object was in full shadow at epoch
Visualization orbit readout
Latitude
Unknown
Longitude
Unknown
Altitude
Unknown
Speed
Unknown
Apparent Right ascension
Unknown
Apparent Declination
Unknown
Sunlit
N/A
Visualization observer readout
Local Sidereal Time
08:38:29
Azimuth
Unknown
Elevation
Unknown
Doppler factor
Unknown
Orbital elements
Apogee altitude
1,155.334 km
Perigee altitude
1,055.065 km
Semi-major axis
7,483.336 km
Eccentricity
0.0067
Inclination
89.9524°
RAAN
242.5908°
Arg. of periapsis
135.4069°
True anomaly
344.77578°
Mean anomaly
344.9764°
Eccentric anomaly
344.87625°
Mean motion
3.35274 °/min
Orbital period
107.37 mins
BSTAR
0.00046778
Loading maneuver chart data...
Computing Atmospheric mass density...
Loading historical data...
Loading historical data...
Loading historical data...
Loading historical data...
Loading historical data...
Loading historical data...
Loading historical data...

Documentation

Showing up to 5 results
|